Tracking 27423 objects as of 8-Jun-2023
HD Live streaming from Space Station
objects crossing your sky now

STARLINK-1099

Track STARLINK-1099 now!
10-day predictions
STARLINK-1099 is classified as:


NORAD ID: 44918
Int'l Code: 2020-001E
Perigee: 553.6 km
Apogee: 555.2 km
Inclination: 53.1 °
Period: 95.6 minutes
Semi major axis: 6925 km
RCS: Unknown
Launch date: January 7, 2020
Source: United States (US)
Launch site: AIR FORCE EASTERN TEST RANGE (AFETR)
Your satellite tracking list
Your tracking list is empty




NASA's NSSDC Master Catalog

Two Line Element Set (TLE):
1 44918U 20001E   23158.78169486 -.00001488  00000-0 -81030-4 0  9996
2 44918  53.0522 182.3435 0001132  79.0502 281.0614 15.06394377188971
Source of the keplerian elements: AFSPC